Weather History for KVGT - February, 2013

Change the Weather History Date:

Monday, February 18, 2013

  Actual Average Record
Temperature  
Mean Temperature 51 °F -  
Max Temperature 60 °F 58 °F 75 °F (2014)
Min Temperature 42 °F 41 °F 24 °F (1953)
Degree Days  
Heating Degree Days 14    
Growing Degree Days 1 (Base 50)    
Moisture  
Dew Point 16 °F    
Average Humidity 25    
Maximum Humidity 39    
Minimum Humidity 16    
Precipitation  
Precipitation 0.00 in - - ()
Sea Level Pressure  
Sea Level Pressure 30.02 in    
Wind  
Wind Speed 3 mph (SSE)    
Max Wind Speed 9 mph    
Max Gust Speed -    
Visibility 10 miles    
Events      
Averages and records for this station are not official NWS values.
T = Trace of Precipitation, MM = Missing Value Source: NWS Daily Summary

Daily Weather History Graph

Daily Weather History Graph

Search for Another Location

Airport or City:

Trip Planner

Search our weather history database for the weather conditions in past years. The results will help you decide how hot, cold, wet, or windy it might be!

Date:

Astronomy

Feb. 18, 2013 Rise Set
Actual Time 6:24 AM PST 5:25 PM PST
Civil Twilight 5:58 AM PST 5:51 PM PST
Nautical Twilight 5:28 AM PST 6:21 PM PST
Astronomical Twilight 4:58 AM PST 6:51 PM PST
Moon 11:19 AM PST (2/18) 1:03 AM PST (2/18)
Length of Visible Light 11h 53m
Length of Day
11h 00m
First Quarter, 59% of the Moon is Illuminated
Feb 18
First Quarter
Feb 25
Full
Mar 4
Last Quarter
Mar 11
New
Mar 19
First Quarter

Hourly Weather History & Observations

Time (PST) Temp. Windchill Dew Point Humidity Pressure Visibility Wind Dir Wind Speed Gust Speed Precip Events Conditions
12:53 AM 53.1 °F - 17.1 °F 24% 29.99 in 10.0 mi Calm Calm - N/A   Clear
1:53 AM 53.1 °F - 17.1 °F 24% 30.01 in 10.0 mi Calm Calm - N/A   Clear
2:53 AM 46.9 °F - 17.1 °F 30% 30.03 in 10.0 mi WNW 5.8 mph - N/A   Clear
3:53 AM 44.1 °F - 17.1 °F 34% 30.05 in 10.0 mi Calm Calm - N/A   Clear
4:53 AM 43.0 °F - 18.0 °F 37% 30.08 in 10.0 mi Calm Calm - N/A   Clear
5:53 AM 42.8 °F 39.3 °F 19.4 °F 39% 30.05 in 10.0 mi SW 5.8 mph - N/A   Clear
6:53 AM 44.1 °F 42.5 °F 18.0 °F 35% 30.12 in 10.0 mi WSW 3.5 mph - N/A   Clear
7:53 AM 46.9 °F - 17.1 °F 30% 30.13 in 10.0 mi SW 6.9 mph - N/A   Clear
8:53 AM 50.0 °F - 16.0 °F 26% 30.13 in 10.0 mi South 6.9 mph - N/A   Clear
9:53 AM 51.1 °F - 16.0 °F 25% 30.14 in 10.0 mi Variable 3.5 mph - N/A   Clear
10:53 AM 54.0 °F - 15.1 °F 22% 30.13 in 10.0 mi SE 3.5 mph - N/A   Clear
11:53 AM 55.9 °F - 12.9 °F 18% 30.09 in 10.0 mi SE 8.1 mph - N/A   Clear
12:53 PM 57.9 °F - 12.0 °F 16% 30.04 in 10.0 mi SE 9.2 mph - N/A   Clear
1:53 PM 59.0 °F - 12.9 °F 16% 30.01 in 10.0 mi ESE 9.2 mph - N/A   Clear
2:53 PM 60.1 °F - 12.9 °F 16% 29.98 in 10.0 mi SSE 5.8 mph - N/A   Clear
3:53 PM 60.1 °F - 14.0 °F 16% 29.96 in 10.0 mi SSE 5.8 mph - N/A   Clear
4:53 PM 60.1 °F - 14.0 °F 16% 29.94 in 10.0 mi SE 4.6 mph - N/A   Clear
5:53 PM 57.0 °F - 14.0 °F 18% 29.94 in 10.0 mi East 3.5 mph - N/A   Clear
6:53 PM 55.9 °F - 15.1 °F 20% 29.94 in 10.0 mi Calm Calm - N/A   Clear
7:53 PM 53.1 °F - 17.1 °F 24% 29.94 in 10.0 mi Calm Calm - N/A   Clear
8:53 PM 50.0 °F - 19.0 °F 29% 29.94 in 10.0 mi West 3.5 mph - N/A   Clear
9:53 PM 48.0 °F - 18.0 °F 30% 29.93 in 10.0 mi Calm Calm - N/A   Clear
10:53 PM 48.0 °F - 19.0 °F 32% 29.92 in 10.0 mi Calm Calm - N/A   Clear
11:53 PM 46.9 °F - 18.0 °F 32% 29.91 in 10.0 mi Calm Calm - N/A   Clear